Regional Weather Roundup
Issued by NWS

Home | Current Version | Previous Version | Text Only | Print | Product List | Glossary Off
Versions: 1 2 3 4 5 6 7 8 9 10 11 12 13 14 15 16 17 18 19 20 21 22 23 24 25 26 27 28 29 30 31 32 33 34 35 36 37 38 39 40 41 42 43 44 45 46 47 48 49 50

000
ASUS43 KMKX 172321
RWRWI

WISCONSIN REGIONAL WEATHER ROUNDUP
NATIONAL WEATHER SERVICE MILWAUKEE/SULLIVAN WI
600 PM CDT TUE OCT 17 2017

NOTE: "FAIR" INDICATES FEW OR NO CLOUDS BELOW 12,000 FEET WITH NO
SIGNIFICANT WEATHER AND/OR OBSTRUCTIONS TO VISIBILITY.

WIZ001-002-006>008-014>016-023>028-180000-
NORTHWEST WISCONSIN

CITY           SKY/WX    TMP DP  RH WIND       PRES   REMARKS
SUPERIOR ARPT  CLEAR     63  40  43 SW5       29.87S
ASHLAND        CLEAR     64  41  42 S7        29.89F
HAYWARD        CLEAR     67  39  35 SW6       29.92S
SIREN          CLEAR     66  40  39 SW5       29.92S
CUMBERLAND     CLEAR     63  39  42 SW6       29.94S
RICE LAKE      CLEAR     65  41  40 S5        29.95S
CHETEK         CLEAR     66  44  45 SW5       29.95S
LADYSMITH      CLEAR     62  45  52 S5        29.97S
EAU CLAIRE     CLEAR     66  45  46 S7        29.95S
MENOMONIE      CLEAR     63  45  50 SE5       29.95S
NEW RICHMOND   CLEAR     66  41  40 S5        29.94S
OSCEOLA        CLEAR     66  43  42 S3        29.96S
$$

WIZ003>005-009-010-017-018-180000-
NORTH CENTRAL WISCONSIN

CITY           SKY/WX    TMP DP  RH WIND       PRES   REMARKS
MANITOWISH WTR CLEAR     61  41  46 S3        29.94S
ARBOR VITAE    CLEAR     62  44  51 S5        29.95S
WOODRUFF       CLEAR     62  44  51 S5        29.95S
RHINELANDER    CLEAR     63  43  48 S6        29.97F
EAGLE RIVER    CLEAR     61  40  45 S3        29.96S
LAND O LAKES   CLEAR     62  39  44 CALM      29.97F
PHILLIPS       CLEAR     61  43  51 SW3       29.95S
TOMAHAWK       CLEAR     61  43  51 CALM      29.97S
MEDFORD        CLEAR     60  45  56 S7        29.98S
MERRILL        CLEAR     63  46  54 SW3       29.98S
$$

WIZ029-030-035-036-043>047-180000-
CENTRAL WISCONSIN

CITY           SKY/WX    TMP DP  RH WIND       PRES   REMARKS
WAUSAU         CLEAR     63  47  55 S9        29.97S
MOSINEE        MOCLDY    59  46  63 S7        30.00S
MARSHFIELD     CLOUDY    61  43  51 S6        29.98S
STEVENS POINT  CLOUDY    61  46  56 S6        30.01R
WAUPACA        PTCLDY    65  47  52 S3        30.01R
WAUTOMA        CLOUDY    66  46  48 S7        30.01S
WISC RAPIDS    CLOUDY    63  49  60 S5        30.01R
CAMP DOUGLAS   MOCLDY    66  46  48 SW5       30.00R
$$

WIZ011>013-019>022-031-037>040-048>050-180000-
NORTHEAST WISCONSIN

CITY           SKY/WX    TMP DP  RH WIND       PRES   REMARKS
ANTIGO         CLEAR     58  47  66 S7        29.99S
SHAWANO        CLOUDY    60  48  65 CALM      29.99S
OCONTO         CLEAR     60  49  69 S5        29.99S
STURGEON BAY   CLEAR     57  51  80 S8        30.02R
GREEN BAY      CLOUDY    63  50  62 S5        30.01R
MANITOWOC      CLOUDY    59  51  75 E3        30.03R
APPLETON       PTCLDY    63  45  51 SW7       30.00S
CLINTONVILLE   CLOUDY    64  46  52 S3        30.00R
OSHKOSH        CLOUDY    63  48  58 S6        30.01R
$$

WIZ032>034-041-042-053>061-180000-
SOUTHWEST WISCONSIN

CITY           SKY/WX    TMP DP  RH WIND       PRES   REMARKS
LA CROSSE      CLEAR     67  48  50 SE5       29.98S
SPARTA         CLEAR     64  47  53 S3        30.01R
VIROQUA        CLEAR     64  46  51 S5        30.01S
BOSCOBEL       CLEAR     71  42  35 S8        30.01S
PRAIRIE DU CHI CLEAR     70  39  32 S5        30.01S
PLATTEVILLE    CLEAR     66  46  47 S8        30.06S
$$

WIZ056-057-062-063-064-067-068-180000-
SOUTH CENTRAL WISCONSIN

CITY           SKY/WX    TMP DP  RH WIND       PRES   REMARKS
REEDSBURG      CLEAR     63  46  53 S5        30.01S
BARABOO/DELLS  CLEAR     64  44  47 SW7       30.02S
LONE ROCK      CLEAR     67  46  47 SW9       30.02S
MINERAL POINT  CLEAR     66  43  42 S8        30.05S
MADISON        PTCLDY    68  44  42 S8G18     30.03F
MIDDLETON      CLEAR     68  42  39 SW9       30.04S
WATERTOWN      CLEAR     65  45  48 SW8       30.04R
MONROE         CLEAR     64  43  45 S12       30.07S
JANESVILLE     CLEAR     66  43  42 SW14      30.07S
$$

WIZ051-052-058>065-066-070>072-180000-
SOUTHEAST WISCONSIN

CITY           SKY/WX    TMP DP  RH WIND       PRES   REMARKS
MILWAUKEE      PTCLDY    69  44  40 SW14G21   30.06S
WAUKESHA       CLEAR     66  43  42 SW14      30.06S
MILWAUKEE/TIMM CLEAR     68  37  32 SW10      30.05S
RACINE         CLEAR     67  43  41 SW12      30.08S
BURLINGTON     CLEAR     64  43  46 SW8       30.08S
KENOSHA        CLEAR     66  42  41 SW8       30.08S
FOND DU LAC    CLOUDY    66  44  45 SW5       30.02S
SHEBOYGAN      CLOUDY    63  48  58 SW5       30.03R
WEST BEND      CLEAR     64  43  45 SW7       30.03S
JUNEAU         CLEAR     64  45  50 S6        30.04S
$$

LSZ147-162-180000-
LAKE SUPERIOR

STATION/POSITION TIME  TEMP    WIND        PRES    WAVE
                       AIR SEA DIR/SP/G            HT/PER
                 (UTC) (F)     (DEG/KT/KT) (MB)    (FT/S)
W MID LAKE BUOY  2250   54 53              1012.1F   1/ 3
DEVILS ISLAND    2300   62     160/  6/  7 1011.9F
SAXON HARBOR     2240   60     200/  2/  4 1011.9F
$$

LMZ867-665-643>646-180000-
LAKE MICHIGAN

STATION/POSITION TIME  TEMP    WIND        PRES    WAVE
                       AIR SEA DIR/SP/G            HT/PER
                 (UTC) (F)     (DEG/KT/KT) (MB)    (FT/S)
S GREEN BAY BUOY 2300   60 58  170/  8/ 10 1015.6
N MID LAKE BUOY  2250   60 59  190/ 17/ 21 1016.2S   4/ 6
NORTHPORT PIER   2240   59     170/  4/  7 1015.6S
KEWAUNEE LAKESHO 2254   58     180/  8/  9 1015.9R
SHEBOYGAN LAKESH 2300   68     210/  5/  5 1016.5R
PORT WASHINGTON  2240   70     250/  5/  9 1017.6S
MILWAUKEE LAKESH 2250   69     220/ 13/ 14   N/A
S MID LAKE BUOY  2250   64 61  220/ 14/ 17 1018.7F   3/ 6
KENOSHA   LAKESH 2300   68     210/  7/ 12 1018.3
$$

TC  - TEMPERATURE IN CELSIUS
VSB - VISIBILITY IN STATUTE MILES
WCI - WIND CHILL INDEX
HX  - HEAT INDEX





USA.gov is the U.S. government's official web portal to all federal, state and local government web resources and services.